H125 CYVR-CZBB

Flight info

Callsign H125
Flight time N/A
Altitude 3000
Route 491320N1230353W
Aircraft H160/L-SBDGRY/S

Departure

Time N/A
Airport Vancouver International Airport (CYVR)

Arrival

Time 2026-05-04 01:10
Airport Boundary Bay Airport (CZBB)
Time Latitude Longitude Altitude Speed Heading
2026-05-04 01:09 49.18366 -123.17391 17 ft 0 kts 104°
2026-05-04 01:13 49.18342 -123.17356 35 ft 10 kts 46°
2026-05-04 01:13 49.18361 -123.17131 109 ft 45 kts 70°
2026-05-04 01:14 49.18398 -123.16704 144 ft 33 kts 80°
2026-05-04 01:14 49.18441 -123.16587 65 ft 5 kts 294°
2026-05-04 01:14 49.18514 -123.16866 148 ft 47 kts 307°
2026-05-04 01:14 49.18806 -123.17185 197 ft 55 kts 326°
2026-05-04 01:15 49.19210 -123.17244 142 ft 66 kts
2026-05-04 01:15 49.19620 -123.17165 48 ft 40 kts 356°
2026-05-04 01:15 49.19712 -123.17173 61 ft 5 kts 293°
2026-05-04 01:15 49.19714 -123.17264 176 ft 30 kts 288°
2026-05-04 01:16 49.19789 -123.17718 192 ft 47 kts 288°
2026-05-04 01:16 49.19978 -123.18011 206 ft 42 kts 345°
2026-05-04 01:16 49.20271 -123.18026 216 ft 42 kts
2026-05-04 01:16 49.20310 -123.17781 233 ft 10 kts 283°
2026-05-04 01:17 49.20472 -123.17883 93 ft 47 kts 21°
2026-05-04 01:17 49.20574 -123.17327 141 ft 61 kts 90°
2026-05-04 01:17 49.20574 -123.16632 167 ft 69 kts 84°
2026-05-04 01:17 49.20611 -123.15912 254 ft 67 kts 90°
2026-05-04 01:18 49.20586 -123.15199 301 ft 72 kts 93°
2026-05-04 01:18 49.20654 -123.14409 299 ft 80 kts 76°
2026-05-04 01:18 49.20790 -123.13531 285 ft 87 kts 75°
2026-05-04 01:18 49.20954 -123.12645 290 ft 86 kts 70°
2026-05-04 01:19 49.21129 -123.11770 290 ft 86 kts 70°
2026-05-04 01:19 49.21292 -123.10915 280 ft 81 kts 63°
2026-05-04 01:19 49.21484 -123.10092 294 ft 84 kts 66°
2026-05-04 01:19 49.21647 -123.09319 213 ft 48 kts 75°
2026-05-04 01:20 49.21730 -123.09150 464 ft 37 kts
2026-05-04 01:20 49.21855 -123.08833 399 ft 46 kts 109°
2026-05-04 01:20 49.21793 -123.08636 311 ft 14 kts 247°
2026-05-04 01:20 49.21771 -123.08631 344 ft 24 kts 76°
2026-05-04 01:21 49.21774 -123.08364 266 ft 12 kts 73°
2026-05-04 01:21 49.21770 -123.08157 291 ft 23 kts 97°
2026-05-04 01:21 49.21748 -123.07937 261 ft 13 kts 81°
2026-05-04 01:21 49.21752 -123.07803 310 ft 5 kts 271°
2026-05-04 01:22 49.21806 -123.07780 371 ft 18 kts 25°
2026-05-04 01:22 49.21863 -123.07675 308 ft 8 kts 28°
2026-05-04 01:22 49.21889 -123.07567 297 ft 10 kts 55°
2026-05-04 01:22 49.21890 -123.07586 494 ft 33 kts 261°
2026-05-04 01:23 49.21884 -123.07670 520 ft 43 kts 275°
2026-05-04 01:23 49.21855 -123.08028 489 ft 46 kts 279°
2026-05-04 01:23 49.21939 -123.07913 393 ft 31 kts 102°
2026-05-04 01:23 49.21960 -123.07726 305 ft 11 kts 77°
2026-05-04 01:24 49.21961 -123.07628 298 ft 8 kts 94°
2026-05-04 01:24 49.21961 -123.07516 314 ft 12 kts 323°
2026-05-04 01:24 49.21936 -123.07447 289 ft 10 kts 273°
2026-05-04 01:24 49.21809 -123.07512 463 ft 30 kts 131°
2026-05-04 01:25 49.21744 -123.07367 356 ft 1 kts 319°
2026-05-04 01:25 49.21806 -123.07438 336 ft 5 kts 22°
2026-05-04 01:25 49.21810 -123.07406 278 ft 2 kts
2026-05-04 01:25 49.21815 -123.07401 227 ft 0 kts 20°
2026-05-04 01:29 49.21816 -123.07396 238 ft 3 kts 336°
2026-05-04 01:29 49.21830 -123.07491 335 ft 19 kts 283°
2026-05-04 01:29 49.21780 -123.07807 400 ft 38 kts 276°
2026-05-04 01:29 49.21741 -123.08303 423 ft 51 kts 274°
2026-05-04 01:30 49.21718 -123.08831 489 ft 53 kts 269°
2026-05-04 01:30 49.21437 -123.09403 360 ft 75 kts 233°
2026-05-04 01:30 49.21086 -123.09927 283 ft 64 kts 239°
2026-05-04 01:30 49.20805 -123.10387 256 ft 55 kts 243°
2026-05-04 01:31 49.20615 -123.10838 209 ft 46 kts 261°
2026-05-04 01:31 49.20509 -123.11320 230 ft 52 kts 266°
2026-05-04 01:31 49.20372 -123.11886 224 ft 61 kts 252°
2026-05-04 01:31 49.20225 -123.12374 239 ft 75 kts 249°
2026-05-04 01:32 49.19952 -123.13070 165 ft 95 kts 243°
2026-05-04 01:32 49.19619 -123.13895 234 ft 92 kts 246°
2026-05-04 01:32 49.19367 -123.14715 178 ft 79 kts 258°
2026-05-04 01:32 49.19286 -123.15241 43 ft 38 kts 284°
2026-05-04 01:33 49.19256 -123.15348 59 ft 5 kts 319°
2026-05-04 01:33 49.19276 -123.15592 91 ft 34 kts 284°
2026-05-04 01:33 49.19279 -123.15990 103 ft 38 kts 281°
2026-05-04 01:33 49.19276 -123.16397 101 ft 42 kts 281°
2026-05-04 01:34 49.19287 -123.16859 77 ft 42 kts 283°
2026-05-04 01:34 49.19317 -123.17237 83 ft 28 kts 304°
2026-05-04 01:34 49.19420 -123.17462 104 ft 21 kts 299°
2026-05-04 01:34 49.19462 -123.17698 150 ft 30 kts 327°
2026-05-04 01:35 49.19639 -123.17768 141 ft 16 kts 347°
2026-05-04 01:35 49.19708 -123.17776 137 ft 11 kts 339°
2026-05-04 01:35 49.19772 -123.17891 147 ft 24 kts 298°
2026-05-04 01:35 49.19657 -123.18355 69 ft 60 kts 259°
2026-05-04 01:36 49.19479 -123.18959 58 ft 72 kts 213°
2026-05-04 01:36 49.19019 -123.18628 75 ft 84 kts 146°
2026-05-04 01:36 49.18673 -123.18139 27 ft 32 kts 141°
2026-05-04 01:36 49.18656 -123.17964 68 ft 15 kts 135°
2026-05-04 01:37 49.18525 -123.17905 45 ft 23 kts 175°
2026-05-04 01:37 49.18456 -123.17862 20 ft 1 kts 300°